Wind_Speed
44 43 40 40 40 42 45 44 47 44 47 39 46 46 54 57 53 49 47 44 43 41 40 40 39 37 35 34 34 34 31 28 26 24 23 22 20 20 19 19 21 22 20
43 43 44 44 45 48 49 49 49 44 45 42 36 47 58 64 57 52 52 47 44 43 42 42 41 39 37 36 35 34 32 29 27 25 24 23 22 21 21 20 21 23 21
43 42 42 43 43 43 43 41 43 41 40 37 37 40 42 55 68 49 57 47 46 45 44 44 43 41 40 39 37 35 32 29 28 26 25 24 24 23 22 22 22 23 22
40 38 37 38 38 38 38 36 30 30 31 32 33 35 39 61 62 63 62 53 50 47 47 47 47 45 42 41 38 36 34 31 29 27 25 25 25 24 24 23 23 23 23
39 37 37 36 35 33 31 29 27 24 23 26 29 34 33 52 62 66 57 63 55 50 50 50 49 46 44 42 40 37 35 32 29 28 27 26 25 25 25 24 24 24 23
39 38 37 36 33 29 26 24 23 19 18 20 25 31 34 38 63 66 59 64 53 54 54 56 53 50 45 44 42 39 36 33 31 29 28 27 26 26 25 24 24 24 24
37 37 37 35 31 26 23 20 16 13 13 16 22 28 29 29 54 66 59 65 36 55 55 45 57 54 54 46 45 42 38 34 32 31 29 28 28 27 26 25 24 24 24
37 36 35 34 30 25 21 16 12 7 9 11 14 21 27 31 47 67 56 71 59 56 57 60 61 60 59 51 49 45 40 37 34 32 30 28 29 27 26 25 24 24 24
36 35 34 33 29 25 19 15 9 5 6 6 6 13 20 28 33 55 63 57 29 54 64 46 65 65 61 56 51 48 44 40 36 34 31 29 29 29 27 27 25 24 24
34 33 32 31 28 23 18 14 9 5 3 2 2 9 15 23 21 34 57 48 38 58 61 54 47 61 62 63 54 51 47 42 38 36 34 31 31 30 29 28 27 26 25
33 32 32 31 28 22 17 14 10 6 4 2 0 6 11 20 18 30 49 61 60 28 54 58 58 44 56 59 56 53 49 45 41 38 36 34 33 32 31 29 28 28 27
32 32 31 31 28 23 17 13 10 7 5 5 2 2 13 17 31 20 35 58 53 38 28 67 65 36 48 62 53 55 50 46 42 39 37 35 34 33 32 30 29 29 29
32 32 32 31 28 24 18 13 10 7 5 5 4 0 9 13 25 29 35 47 38 35 33 39 68 47 36 50 53 55 50 47 44 40 38 37 36 35 33 32 30 29 30
31 32 32 30 28 23 18 13 10 8 6 6 7 4 1 13 21 20 19 38 48 45 39 38 32 70 38 51 52 55 51 46 45 42 39 38 37 36 34 33 32 30 31
31 31 31 30 28 24 20 15 10 8 7 7 7 6 2 4 19 23 21 25 37 46 38 40 38 60 41 52 56 49 56 53 49 46 43 40 39 37 36 34 33 32 32
31 31 31 30 28 26 21 16 12 9 8 8 8 7 5 1 9 24 21 22 30 38 39 42 51 46 37 55 47 64 52 54 54 50 46 43 40 38 37 36 35 33 32
30 31 31 30 29 27 22 17 13 9 8 9 10 10 9 3 2 11 28 21 32 35 38 40 23 42 40 40 53 57 53 51 51 52 51 47 43 41 40 38 37 35 34
30 30 31 30 29 27 23 18 14 11 9 8 9 10 10 8 2 5 20 21 27 35 26 46 33 36 40 42 43 56 62 50 51 54 57 52 48 44 42 39 39 38 37
28 30 31 30 29 27 24 21 17 14 11 11 10 10 10 9 5 2 8 19 22 31 31 40 29 35 30 38 41 33 52 57 56 56 59 55 52 47 45 43 41 41 39
27 29 31 31 31 28 25 23 19 17 15 13 13 13 12 10 6 3 3 13 24 25 31 31 37 36 31 33 30 34 50 46 60 61 63 59 53 51 49 47 45 44 42
27 28 29 31 31 29 27 25 23 19 17 17 17 16 15 12 7 3 3 8 14 25 31 34 40 37 31 31 41 20 44 47 49 55 62 59 58 56 55 52 50 47 45
26 26 27 29 31 31 29 26 24 22 20 18 18 18 16 14 11 5 1 3 9 19 29 36 43 33 24 36 40 30 30 42 42 56 64 62 59 59 57 55 52 49 48
26 26 26 27 29 30 30 28 25 23 21 19 20 19 17 15 12 9 3 2 5 11 20 28 40 39 28 28 37 25 29 29 36 39 45 59 56 58 57 58 55 51 49
26 26 26 26 27 28 29 29 27 24 22 21 21 21 20 17 12 9 6 2 3 7 12 21 33 32 32 34 35 26 29 27 39 37 44 64 70 57 47 55 55 56 54
26 26 26 26 24 25 27 28 27 25 22 21 21 21 20 17 15 11 9 5 2 2 7 16 24 33 34 35 43 42 40 31 27 33 31 30 56 77 54 49 53 53 55
27 26 26 25 25 23 24 25 26 25 22 20 20 20 20 21 18 14 11 8 5 2 3 10 19 31 32 31 30 34 37 33 32 38 35 29 35 45 61 56 50 50 54
Wind_Direction
325 320 315 307 300 293 287 277 272 261 254 255 243 246 238 223 217 210 205 207 206 206 204 204 199 197 197 197 195 191 192 194 196 196 194 191 184 181 181 181 176 174 173
325 321 316 310 302 295 286 278 270 263 252 252 245 243 233 228 222 213 202 204 204 204 203 203 199 197 196 195 194 192 194 196 199 199 198 193 187 182 182 184 182 178 176
328 324 320 315 310 306 301 289 273 266 253 249 241 245 235 224 214 216 204 202 202 204 204 201 197 198 198 195 196 195 197 198 200 200 199 194 189 184 184 184 186 183 180
331 326 319 314 311 305 298 293 280 266 253 247 237 237 239 226 219 219 205 196 201 203 203 201 197 198 197 197 198 196 198 196 200 201 199 197 189 186 185 186 185 186 183
333 328 325 320 315 308 299 289 275 263 245 242 230 231 229 220 214 212 205 195 198 202 202 200 198 198 198 197 199 198 199 199 200 202 199 198 191 187 187 188 186 187 187
333 333 331 327 322 313 302 291 281 265 243 233 223 226 228 223 214 219 215 199 199 200 209 194 196 197 198 199 198 199 200 201 201 201 200 198 194 188 188 189 188 188 189
337 338 337 333 327 318 308 307 291 272 250 231 218 223 225 225 218 212 211 203 194 199 205 203 199 198 195 200 199 200 200 200 203 201 201 199 196 191 188 190 189 190 192
345 343 342 337 331 324 322 314 303 283 261 244 223 217 223 225 216 220 208 209 201 200 208 211 200 199 198 196 198 200 200 200 202 203 201 201 198 193 191 190 190 189 193
347 345 346 342 336 330 330 326 327 298 276 260 212 212 215 223 221 213 215 210 204 193 211 207 208 205 200 194 197 198 199 202 199 202 201 200 202 195 194 192 192 194 194
349 348 350 345 342 336 336 335 344 334 316 300 200 196 208 212 214 218 216 207 204 197 202 216 213 196 200 199 196 198 198 202 201 202 202 198 203 199 196 196 196 197 198
352 351 352 350 349 345 344 342 348 341 338 11 102 195 201 210 194 207 211 208 211 202 216 212 215 203 205 208 197 197 199 202 203 203 206 200 202 202 197 200 200 200 202
355 354 355 355 356 354 351 351 353 354 344 25 53 196 203 200 206 191 200 211 205 208 213 209 210 201 208 191 209 197 197 202 206 206 206 206 202 204 201 200 203 202 204
357 358 359 359 2 2 360 359 358 1 353 19 31 333 213 206 207 202 194 190 201 221 216 218 211 205 207 204 191 196 196 201 206 210 207 210 206 206 205 201 205 203 205
2 2 2 3 4 6 8 7 5 7 2 16 29 15 293 219 211 224 205 197 214 223 220 225 236 218 219 198 207 200 196 201 205 209 211 212 210 209 207 204 205 205 205
6 5 5 7 7 10 14 16 12 12 15 17 21 24 360 214 216 216 229 200 188 204 196 215 224 208 218 214 209 208 207 206 204 207 211 213 211 210 209 207 206 208 206
9 8 10 11 12 14 17 22 20 20 23 18 14 18 17 315 207 217 215 217 199 187 190 207 214 217 208 219 222 211 212 204 206 206 211 213 212 210 211 210 207 208 210
12 12 13 15 16 18 18 28 28 27 28 24 16 7 8 25 187 223 205 204 212 199 192 190 178 211 201 216 204 206 201 200 201 206 209 212 210 210 209 209 209 208 211
14 15 17 19 21 21 22 29 38 37 30 25 19 9 2 1 14 208 222 217 198 201 202 197 204 182 204 202 202 209 209 209 207 211 211 211 210 209 211 209 209 209 210
17 18 19 22 26 26 28 31 39 43 36 28 19 9 7 0 351 254 199 230 217 199 199 200 211 205 202 202 203 201 201 210 215 210 211 211 210 209 212 212 211 211 212
20 21 20 24 28 30 32 35 39 44 41 34 26 16 6 8 357 327 228 210 220 214 203 194 195 208 196 213 207 214 211 213 216 216 213 209 210 212 214 214 214 213 213
22 24 22 24 28 31 36 38 39 42 40 31 23 18 11 3 13 359 258 215 202 215 211 198 191 184 176 181 199 176 207 220 222 212 207 211 211 214 215 215 217 215 215
25 25 24 25 27 31 33 37 41 40 39 34 26 21 18 9 359 16 26 217 206 205 209 214 203 217 197 182 201 202 191 211 208 212 209 212 217 219 219 219 219 221 219
28 26 27 26 26 29 31 34 35 38 37 34 30 23 22 19 10 0 38 181 205 209 209 207 220 220 223 192 192 185 185 189 203 207 212 212 210 220 219 221 221 223 226
30 28 28 28 26 27 29 31 32 33 33 34 31 29 25 20 18 13 13 61 174 202 210 206 209 224 222 218 206 192 197 186 198 204 220 223 221 216 217 219 221 223 224
28 28 28 28 27 27 30 32 30 32 33 34 34 33 32 26 26 27 27 30 84 150 202 210 210 206 219 223 221 229 234 236 219 222 196 210 213 216 226 217 220 222 226
26 26 26 25 27 28 28 32 35 35 35 36 38 40 38 40 39 35 34 32 22 7 189 207 213 208 203 208 214 221 229 231 229 232 236 230 216 224 230 219 224 224 225
Height
3067 3061 3058 3053 3047 3043 3038 3037 3033 3035 3035 3037 3042 3045 3053 3062 3067 3072 3080 3088 3094 3101 3107 3114 3119 3126 3131 3136 3141 3146 3152 3157 3161 3165 3169 3173 3177 3180 3183 3185 3188 3191 3194
3060 3053 3046 3041 3036 3030 3025 3022 3020 3019 3023 3025 3031 3033 3038 3048 3055 3061 3070 3078 3086 3094 3101 3107 3114 3121 3126 3132 3138 3143 3149 3154 3158 3162 3167 3171 3175 3179 3181 3185 3189 3191 3194
3052 3044 3037 3030 3024 3017 3011 3007 3005 3005 3010 3012 3018 3021 3025 3033 3044 3047 3062 3069 3078 3086 3094 3101 3109 3115 3122 3128 3134 3140 3146 3151 3155 3160 3165 3169 3173 3177 3180 3183 3188 3191 3193
3046 3039 3031 3023 3016 3009 3003 2998 2995 2995 2997 3000 3006 3010 3013 3020 3032 3039 3048 3058 3068 3078 3085 3094 3102 3109 3117 3123 3130 3136 3142 3147 3152 3157 3162 3166 3171 3175 3178 3181 3186 3190 3193
3039 3032 3023 3015 3007 3000 2994 2990 2987 2986 2988 2990 2995 3000 3004 3010 3021 3025 3030 3048 3059 3070 3078 3085 3095 3104 3111 3119 3126 3132 3138 3144 3149 3154 3158 3164 3168 3172 3176 3180 3184 3188 3192
3033 3024 3016 3007 2999 2993 2987 2983 2980 2979 2980 2982 2985 2990 2995 2999 3008 3018 3026 3039 3046 3061 3062 3072 3087 3095 3105 3114 3121 3128 3134 3140 3145 3151 3156 3161 3166 3170 3174 3178 3182 3186 3190
3029 3019 3010 3002 2994 2987 2982 2979 2975 2973 2974 2976 2978 2983 2988 2991 2996 3008 3017 3020 3020 3052 3060 3065 3079 3088 3096 3107 3116 3123 3130 3136 3142 3147 3153 3159 3164 3168 3172 3176 3180 3184 3189
3022 3014 3006 2997 2990 2984 2980 2976 2972 2971 2969 2970 2972 2977 2981 2985 2985 2992 3005 3020 3031 3042 3051 3053 3067 3079 3088 3098 3108 3117 3125 3132 3138 3145 3150 3156 3161 3165 3169 3174 3178 3182 3187
3019 3011 3004 2995 2987 2981 2978 2974 2971 2969 2967 2967 2967 2971 2975 2976 2980 2987 2998 3011 3014 3027 3041 3043 3056 3071 3082 3091 3101 3110 3119 3127 3133 3140 3146 3152 3159 3163 3167 3171 3176 3180 3185
3017 3009 3002 2993 2986 2980 2976 2973 2970 2968 2967 2966 2966 2967 2970 2974 2978 2983 2990 3001 3012 3022 3032 3039 3045 3061 3074 3084 3093 3103 3112 3122 3129 3136 3142 3148 3155 3160 3164 3169 3173 3178 3183
3015 3008 3000 2992 2985 2979 2976 2972 2970 2967 2966 2966 2965 2966 2969 2972 2975 2980 2985 2995 3004 3013 3025 3033 3035 3049 3065 3077 3085 3096 3106 3116 3124 3131 3138 3143 3151 3157 3161 3166 3170 3175 3179
3014 3007 2999 2992 2985 2979 2975 2972 2970 2968 2967 2966 2965 2965 2967 2970 2975 2977 2983 2992 2996 3003 3015 3029 3038 3044 3050 3065 3076 3089 3100 3110 3119 3127 3134 3140 3146 3153 3157 3162 3167 3171 3176
3013 3006 2999 2991 2984 2979 2975 2972 2970 2969 2967 2966 2966 2967 2968 2970 2973 2978 2980 2986 2996 3002 3013 3020 3032 3037 3046 3052 3070 3082 3093 3104 3114 3122 3129 3136 3141 3148 3153 3158 3163 3168 3172
3014 3007 2999 2992 2985 2980 2976 2973 2971 2969 2968 2968 2967 2967 2968 2969 2972 2973 2979 2987 2993 3002 3010 3018 3028 3033 3044 3049 3064 3076 3086 3097 3107 3116 3124 3131 3137 3144 3149 3154 3159 3164 3168
3015 3008 3001 2993 2987 2981 2977 2975 2972 2971 2970 2969 2969 2969 2968 2969 2972 2975 2976 2981 2989 2998 3006 3011 3020 3027 3035 3046 3057 3067 3081 3089 3099 3109 3118 3126 3132 3139 3145 3150 3155 3160 3164
3016 3010 3003 2995 2988 2983 2979 2976 2974 2972 2971 2971 2970 2970 2970 2970 2972 2973 2975 2977 2983 2992 3000 3009 3016 3022 3032 3037 3047 3061 3071 3081 3091 3101 3111 3120 3127 3133 3140 3145 3150 3156 3161
3018 3012 3005 2998 2991 2985 2981 2978 2976 2975 2974 2973 2971 2970 2970 2971 2970 2973 2975 2978 2983 2990 2997 3005 3011 3016 3029 3035 3042 3053 3062 3072 3082 3093 3104 3114 3121 3127 3134 3140 3145 3150 3156
3020 3014 3007 3000 2994 2988 2984 2980 2978 2977 2976 2975 2973 2972 2970 2968 2969 2970 2973 2977 2981 2988 2994 3001 3008 3013 3024 3030 3039 3046 3056 3066 3075 3085 3095 3105 3114 3121 3128 3134 3139 3144 3150
3022 3017 3010 3004 2997 2991 2987 2983 2980 2979 2978 2976 2975 2974 2972 2971 2969 2970 2971 2976 2980 2986 2993 2999 3007 3012 3020 3027 3034 3039 3049 3060 3070 3079 3089 3098 3107 3114 3121 3128 3133 3138 3144
3025 3019 3013 3007 3001 2995 2991 2987 2984 2981 2980 2978 2976 2974 2971 2971 2969 2969 2971 2975 2979 2984 2990 2996 3004 3010 3016 3021 3028 3035 3044 3051 3058 3070 3080 3090 3099 3107 3114 3120 3126 3131 3137
3027 3022 3017 3011 3005 2999 2995 2991 2987 2984 2982 2980 2978 2975 2972 2970 2971 2971 2971 2974 2977 2982 2988 2994 3000 3005 3010 3016 3024 3025 3035 3043 3050 3061 3072 3081 3089 3097 3104 3111 3117 3123 3129
3031 3025 3021 3015 3010 3003 2998 2995 2992 2989 2986 2983 2981 2978 2975 2973 2971 2972 2973 2974 2976 2980 2984 2990 2995 3001 3005 3011 3018 3024 3031 3038 3044 3052 3063 3073 3082 3089 3098 3104 3112 3118 3123
3033 3029 3024 3019 3014 3009 3003 2999 2995 2992 2990 2987 2983 2980 2977 2975 2972 2972 2973 2973 2974 2976 2980 2985 2992 2996 3004 3008 3014 3019 3026 3031 3038 3048 3057 3066 3073 3081 3088 3096 3104 3111 3117
3036 3031 3027 3023 3018 3013 3009 3004 2999 2995 2992 2989 2987 2983 2980 2978 2975 2973 2972 2973 2975 2976 2978 2982 2989 2994 3001 3008 3013 3015 3021 3027 3036 3041 3048 3055 3065 3071 3079 3086 3094 3100 3107
3038 3034 3030 3026 3022 3018 3014 3009 3004 2999 2996 2993 2990 2987 2984 2980 2977 2977 2974 2975 2976 2976 2977 2980 2984 2989 2996 3003 3009 3013 3019 3026 3032 3038 3042 3046 3052 3064 3070 3076 3083 3090 3097
3041 3036 3033 3029 3025 3021 3017 3014 3009 3004 3000 2996 2994 2991 2987 2984 2982 2978 2977 2976 2976 2977 2978 2979 2982 2988 2993 2999 3004 3010 3017 3022 3031 3033 3036 3042 3049 3056 3058 3065 3072 3079 3086